When you browse on this site, cookies collect data to enhance your experience and personalize the content and advertising you see.
Visit our Privacy Policy to learn more. By continuing to use the site, you agree to this use of cookies and data.
  • En España
  • Lista de países
  • Para 7 días
  • Temperatura del agua
  • El tiempo en el mapa
  • Informadores
  • user-avatar
    Iniciar sesión

    Tiempo cada hora Sana

    Hoy, 21 Enero, Martes

    Tiempo Temperatura Precipitaciones Viento Presión Humedad
    00:00 +13°C° 0 mm 1 mps 579 mmHg 34%
    01:00 +12°C° 0 mm 1 mps 579 mmHg 36%
    02:00 +11°C° 0 mm 0 mps 578 mmHg 38%
    03:00 +10°C° 0 mm 0 mps 577 mmHg 41%
    04:00 +10°C° 0 mm 0 mps 577 mmHg 43%
    05:00 +9°C° 0 mm 0 mps 577 mmHg 46%
    06:00 +9°C° 0 mm 0 mps 577 mmHg 48%
    07:00 +12°C° 0 mm 1 mps 578 mmHg 44%
    08:00 +13°C° 0 mm 1 mps 579 mmHg 41%
    09:00 +15°C° 0 mm 1 mps 580 mmHg 38%
    10:00 +17°C° 0 mm 2 mps 581 mmHg 36%
    11:00 +18°C° 0 mm 3 mps 581 mmHg 33%
    12:00 +20°C° 0 mm 3 mps 581 mmHg 31%
    13:00 +20°C° 0 mm 4 mps 581 mmHg 32%
    14:00 +20°C° 0 mm 4 mps 580 mmHg 34%
    15:00 +20°C° 0 mm 5 mps 580 mmHg 35%
    16:00 +19°C° 0 mm 5 mps 579 mmHg 44%
    17:00 +18°C° 0 mm 4 mps 579 mmHg 53%
    18:00 +16°C° 0 mm 3 mps 579 mmHg 62%
    19:00 +16°C° 0 mm 3 mps 579 mmHg 66%
    20:00 +15°C° 0 mm 2 mps 579 mmHg 70%
    21:00 +14°C° 0 mm 1 mps 579 mmHg 74%
    22:00 +14°C° 0 mm 1 mps 578 mmHg 76%
    23:00 +13°C° 0 mm 1 mps 578 mmHg 79%

    Mañana, 22 Enero, Miércoles

    Tiempo Temperatura Precipitaciones Viento Presión Humedad
    00:00 +13°C° 0 mm 1 mps 577 mmHg 81%
    01:00 +12°C° 0 mm 1 mps 577 mmHg 83%
    02:00 +12°C° 0 mm 1 mps 577 mmHg 85%
    03:00 +11°C° 0 mm 1 mps 576 mmHg 88%
    04:00 +11°C° 0 mm 1 mps 576 mmHg 88%
    05:00 +11°C° 0 mm 1 mps 576 mmHg 88%
    06:00 +11°C° 0 mm 1 mps 577 mmHg 88%
    07:00 +12°C° 0 mm 2 mps 577 mmHg 82%
    08:00 +13°C° 0 mm 2 mps 578 mmHg 76%
    09:00 +13°C° 0 mm 3 mps 579 mmHg 70%
    10:00 +14°C° 0 mm 3 mps 579 mmHg 64%
    11:00 +15°C° 0 mm 4 mps 579 mmHg 58%
    12:00 +16°C° 0 mm 5 mps 579 mmHg 52%
    13:00 +17°C° 0 mm 5 mps 579 mmHg 50%
    14:00 +17°C° 0 mm 5 mps 579 mmHg 48%
    15:00 +19°C° 0 mm 5 mps 578 mmHg 46%
    16:00 +17°C° 0 mm 5 mps 578 mmHg 52%
    17:00 +17°C° 0 mm 4 mps 578 mmHg 59%
    18:00 +16°C° 0 mm 3 mps 578 mmHg 65%
    19:00 +14°C° 0 mm 3 mps 578 mmHg 70%
    20:00 +14°C° 0 mm 2 mps 578 mmHg 75%
    21:00 +14°C° 0 mm 2 mps 578 mmHg 81%
    22:00 +13°C° 0 mm 2 mps 578 mmHg 83%
    23:00 +13°C° 0 mm 2 mps 578 mmHg 85%

    Pasado mañana, 23 Enero, Jueves

    Tiempo Temperatura Precipitaciones Viento Presión Humedad
    00:00 +13°C° 0 mm 2 mps 577 mmHg 87%
    01:00 +13°C° 0 mm 2 mps 577 mmHg 87%
    02:00 +13°C° 0 mm 1 mps 577 mmHg 86%
    03:00 +13°C° 0 mm 1 mps 577 mmHg 85%
    04:00 +12°C° 0 mm 1 mps 577 mmHg 87%
    05:00 +12°C° 0 mm 1 mps 577 mmHg 89%
    06:00 +12°C° 0 mm 1 mps 577 mmHg 90%
    07:00 +13°C° 0 mm 2 mps 578 mmHg 84%
    08:00 +14°C° 0 mm 2 mps 578 mmHg 78%
    09:00 +15°C° 0 mm 2 mps 579 mmHg 72%
    10:00 +16°C° 0.1 mm 3 mps 580 mmHg 67%
    11:00 +17°C° 0.1 mm 3 mps 580 mmHg 62%
    12:00 +18°C° 0.1 mm 4 mps 580 mmHg 57%
    13:00 +18°C° 0.2 mm 4 mps 580 mmHg 57%
    14:00 +17°C° 0.2 mm 5 mps 579 mmHg 58%
    15:00 +17°C° 0.2 mm 5 mps 579 mmHg 58%
    16:00 +16°C° 0.1 mm 5 mps 579 mmHg 63%
    17:00 +15°C° 0.1 mm 4 mps 579 mmHg 68%
    18:00 +14°C° 0.1 mm 3 mps 579 mmHg 73%
    19:00 +14°C° 0.1 mm 3 mps 579 mmHg 76%
    20:00 +14°C° 0.1 mm 2 mps 579 mmHg 78%
    21:00 +14°C° 0.1 mm 1 mps 579 mmHg 81%
    22:00 +13°C° 0 mm 1 mps 579 mmHg 82%
    23:00 +13°C° 0 mm 1 mps 579 mmHg 84%

    24 Enero, Viernes

    Tiempo Temperatura Precipitaciones Viento Presión Humedad
    00:00 +12°C° 0 mm 0 mps 579 mmHg 85%
    01:00 +11°C° 0 mm 0 mps 578 mmHg 86%
    02:00 +11°C° 0 mm 0 mps 578 mmHg 87%
    03:00 +11°C° 0 mm 0 mps 577 mmHg 89%
    04:00 +10°C° 0 mm 0 mps 578 mmHg 89%
    05:00 +10°C° 0 mm 0 mps 578 mmHg 90%
    06:00 +10°C° 0 mm 0 mps 578 mmHg 91%
    07:00 +12°C° 0 mm 1 mps 579 mmHg 84%
    08:00 +13°C° 0 mm 1 mps 580 mmHg 77%
    09:00 +15°C° 0 mm 1 mps 581 mmHg 70%
    10:00 +16°C° 0 mm 2 mps 581 mmHg 64%
    11:00 +17°C° 0 mm 3 mps 581 mmHg 57%
    12:00 +19°C° 0 mm 4 mps 582 mmHg 51%
    13:00 +19°C° 0.1 mm 5 mps 581 mmHg 51%
    14:00 +19°C° 0.1 mm 5 mps 581 mmHg 51%
    15:00 +19°C° 0.1 mm 5 mps 581 mmHg 51%
    16:00 +18°C° 0 mm 4 mps 580 mmHg 56%
    17:00 +17°C° 0 mm 4 mps 580 mmHg 61%
    18:00 +16°C° 0 mm 3 mps 580 mmHg 66%
    19:00 +16°C° 0 mm 2 mps 580 mmHg 67%
    20:00 +15°C° 0 mm 2 mps 580 mmHg 68%
    21:00 +15°C° 0 mm 1 mps 581 mmHg 69%
    22:00 +14°C° 0 mm 1 mps 580 mmHg 71%
    23:00 +14°C° 0 mm 1 mps 580 mmHg 73%

    25 Enero, Sábado

    Tiempo Temperatura Precipitaciones Viento Presión Humedad
    00:00 +12°C° 0 mm 0 mps 580 mmHg 75%
    01:00 +12°C° 0 mm 0 mps 580 mmHg 78%
    02:00 +11°C° 0 mm 0 mps 579 mmHg 80%
    03:00 +11°C° 0 mm 0 mps 579 mmHg 82%
    04:00 +11°C° 0 mm 0 mps 579 mmHg 83%
    05:00 +10°C° 0 mm 0 mps 579 mmHg 83%
    06:00 +11°C° 0 mm 1 mps 579 mmHg 83%
    07:00 +13°C° 0 mm 1 mps 580 mmHg 74%
    08:00 +14°C° 0 mm 1 mps 581 mmHg 65%
    09:00 +16°C° 0 mm 1 mps 582 mmHg 56%
    10:00 +17°C° 0 mm 2 mps 583 mmHg 48%
    11:00 +19°C° 0 mm 3 mps 583 mmHg 41%
    12:00 +20°C° 0 mm 3 mps 583 mmHg 33%
    13:00 +21°C° 0 mm 3 mps 583 mmHg 34%
    14:00 +21°C° 0 mm 4 mps 582 mmHg 34%
    15:00 +21°C° 0 mm 4 mps 582 mmHg 35%
    16:00 +20°C° 0.1 mm 3 mps 582 mmHg 41%
    17:00 +19°C° 0.1 mm 2 mps 582 mmHg 47%
    18:00 +18°C° 0.1 mm 2 mps 581 mmHg 53%
    19:00 +17°C° 0.1 mm 2 mps 581 mmHg 52%
    20:00 +17°C° 0.1 mm 2 mps 581 mmHg 52%
    21:00 +16°C° 0.1 mm 2 mps 581 mmHg 52%
    22:00 +15°C° 0 mm 1 mps 581 mmHg 54%
    23:00 +15°C° 0 mm 1 mps 581 mmHg 56%

    26 Enero, Domingo

    Tiempo Temperatura Precipitaciones Viento Presión Humedad
    00:00 +14°C° 0 mm 1 mps 581 mmHg 58%
    01:00 +14°C° 0 mm 1 mps 580 mmHg 61%
    02:00 +13°C° 0 mm 1 mps 580 mmHg 64%
    03:00 +13°C° 0 mm 1 mps 579 mmHg 67%
    04:00 +12°C° 0 mm 1 mps 580 mmHg 70%
    05:00 +12°C° 0 mm 1 mps 580 mmHg 73%
    06:00 +11°C° 0 mm 1 mps 580 mmHg 76%
    07:00 +12°C° 0 mm 1 mps 581 mmHg 72%
    08:00 +13°C° 0 mm 1 mps 581 mmHg 68%
    09:00 +14°C° 0 mm 1 mps 582 mmHg 65%
    10:00 +15°C° 0 mm 2 mps 582 mmHg 58%
    11:00 +17°C° 0 mm 2 mps 583 mmHg 52%
    12:00 +19°C° 0 mm 2 mps 583 mmHg 46%
    13:00 +19°C° 0 mm 3 mps 583 mmHg 44%
    14:00 +20°C° 0 mm 4 mps 583 mmHg 41%
    15:00 +21°C° 0 mm 4 mps 583 mmHg 39%
    16:00 +19°C° 0 mm 4 mps 582 mmHg 47%
    17:00 +18°C° 0 mm 3 mps 582 mmHg 54%
    18:00 +16°C° 0 mm 3 mps 581 mmHg 61%
    19:00 +15°C° 0 mm 2 mps 581 mmHg 66%
    20:00 +14°C° 0 mm 2 mps 581 mmHg 71%
    21:00 +13°C° 0 mm 2 mps 580 mmHg 75%
    22:00 +12°C° 0 mm 1 mps 580 mmHg 78%
    23:00 +12°C° 0 mm 1 mps 580 mmHg 81%
    Mostrar más